Home > Weather > Inglewood > Past weeks

Flag for USA Past Weather in Inglewood, California, USA — Yesterday and Last 2 Weeks

Now
70 °F

Clear.


Feels Like: 68 °F
Forecast: 67 / 82 °F
Wind: No wind

Location: Hawthorne Municipal Airport

Current Time: Jul 25, 2016 at 7:05:34 AM

Latest Report: Jul 25, 2016 at 5:53 AM


Visibility: 10 mi

Pressure: 29.92 "Hg

Humidity: 87%

Dew Point: 66 °F

Location of InglewoodLocation

Past Weather in Inglewood — Graph

°F

Inglewood Temperature Yesterday

Maximum temperature yesterday: 87 °F (at 2:53 PM)
Minimum temperature yesterday: 69 °F (at 5:53 AM)
Average temperature yesterday: 76 °F

High & Low Weather Summary for the Past Weeks

 TemperatureHumidityPressure
High89 °F (Jul 23, 12:53 PM)87% (Jul 14, 4:53 AM)30.03 "Hg (Jul 14, 4:53 AM)
Low64 °F (Jul 15, 3:53 AM)32% (Jul 24, 2:53 PM)29.79 "Hg (Jul 23, 1:53 AM)
Average72 °F69%29.92 "Hg
* Reported Jul 10 5:53 AM — Jul 25 5:53 AM, Inglewood, Weather by CustomWeather, © 2016

Note: Actual official high and low records may vary slightly from our data, if they occured in-between our weather recording intervals... More about our weather records

Advertising

Inglewood Weather History for the Previous 24 Hours

Scroll right to see more
 ConditionsComfort  
Time TempWeatherWind HumidityBarometerVisibility
5:53 AM
Mon, Jul 25
70 °FClear.No wind87%29.92 "Hg10 mi
4:53 AM70 °FClear.3 mph87%29.91 "Hg10 mi
3:53 AM71 °FClear.3 mph84%29.91 "Hg9 mi
2:53 AM72 °FOvercast.No wind81%29.92 "Hg9 mi
1:53 AM71 °FOvercast.No wind87%29.92 "Hg9 mi
1:02 AM71 °FPassing clouds.No wind84%29.92 "Hg10 mi
12:53 AM71 °FPassing clouds.No wind84%29.91 "Hg10 mi
11:53 PM
Sun, Jul 24
71 °FPassing clouds.3 mph87%29.92 "Hg10 mi
10:53 PM72 °FClear.5 mph84%29.91 "Hg10 mi
9:53 PM72 °FClear.3 mph84%29.91 "Hg9 mi
8:53 PM73 °FSunny.6 mph81%29.89 "Hg10 mi
7:53 PM74 °FSunny.9 mph79%29.88 "Hg10 mi
6:53 PM78 °FSunny.8 mph66%29.87 "Hg10 mi
5:53 PM81 °FSunny.9 mph60%29.86 "Hg10 mi
4:53 PM82 °FSunny.8 mph58%29.87 "Hg10 mi
3:53 PM85 °FSunny.7 mph51%29.88 "Hg10 mi
2:53 PM87 °FSunny.3 mph32%29.90 "Hg10 mi
1:53 PM86 °FSunny.6 mph39%29.91 "Hg10 mi
12:53 PM84 °FSunny.7 mph51%29.92 "Hg10 mi
11:53 AM81 °FSunny.8 mph60%29.93 "Hg10 mi
10:53 AM78 °FSunny.8 mph66%29.93 "Hg10 mi
9:53 AM77 °FSunny.7 mph69%29.91 "Hg10 mi
8:53 AM73 °FSunny.6 mph81%29.89 "Hg8 mi
7:53 AM71 °FScattered clouds.3 mph87%29.87 "Hg8 mi
7:00 AM71 °FPartly sunny.3 mph84%29.86 "Hg8 mi
Weather by CustomWeather, © 2016

See weather overviewHow to use our weather pages